LRC651 MGGT-MROC

Flight info

Callsign LRC651
Flight time N/A
Altitude 37000
Route KAPAN2A KAPAN UG436 LIB BARRA3L
Aircraft A20N/M-SDE2E3FGHIRWXY/LB1

Departure

Time 2026-04-28 05:46
Airport La Aurora International Airport (MGGT)

Arrival

Time N/A
Airport Juan Santamaría International Airport (MROC)
Time Latitude Longitude Altitude Speed Heading
2026-04-28 05:15 14.59009 -90.52845 4908 ft 0 kts 287°
2026-04-28 05:35 14.59008 -90.52841 4908 ft 2 kts 288°
2026-04-28 05:35 14.59003 -90.52826 4908 ft 2 kts 287°
2026-04-28 05:35 14.58999 -90.52811 4908 ft 2 kts 287°
2026-04-28 05:35 14.58994 -90.52796 4908 ft 2 kts 287°
2026-04-28 05:36 14.58990 -90.52782 4908 ft 2 kts 283°
2026-04-28 05:36 14.58990 -90.52766 4908 ft 2 kts 249°
2026-04-28 05:36 14.58998 -90.52753 4908 ft 2 kts 222°
2026-04-28 05:36 14.59011 -90.52745 4908 ft 2 kts 194°
2026-04-28 05:37 14.59017 -90.52743 4908 ft 0 kts 192°
2026-04-28 05:39 14.59015 -90.52744 4908 ft 0 kts 195°
2026-04-28 05:39 14.58998 -90.52750 4908 ft 4 kts 198°
2026-04-28 05:39 14.58988 -90.52753 4908 ft 0 kts 198°
2026-04-28 05:40 14.58970 -90.52759 4908 ft 5 kts 197°
2026-04-28 05:40 14.58904 -90.52779 4908 ft 12 kts 195°
2026-04-28 05:40 14.58824 -90.52805 4908 ft 12 kts 198°
2026-04-28 05:40 14.58739 -90.52815 4908 ft 13 kts 159°
2026-04-28 05:41 14.58679 -90.52727 4896 ft 17 kts 136°
2026-04-28 05:41 14.58561 -90.52743 4891 ft 18 kts 198°
2026-04-28 05:41 14.58430 -90.52786 4884 ft 21 kts 197°
2026-04-28 05:41 14.58289 -90.52831 4876 ft 20 kts 197°
2026-04-28 05:42 14.58148 -90.52876 4871 ft 20 kts 197°
2026-04-28 05:42 14.58006 -90.52922 4869 ft 20 kts 197°
2026-04-28 05:42 14.57870 -90.52966 4871 ft 19 kts 198°
2026-04-28 05:42 14.57749 -90.53005 4874 ft 17 kts 197°
2026-04-28 05:43 14.57638 -90.53041 4876 ft 15 kts 198°
2026-04-28 05:43 14.57536 -90.53074 4878 ft 14 kts 197°
2026-04-28 05:43 14.57447 -90.53102 4880 ft 13 kts 197°
2026-04-28 05:43 14.57348 -90.53134 4880 ft 15 kts 197°
2026-04-28 05:44 14.57239 -90.53168 4880 ft 16 kts 198°
2026-04-28 05:44 14.57138 -90.53201 4881 ft 14 kts 197°
2026-04-28 05:44 14.57072 -90.53198 4881 ft 8 kts 122°
2026-04-28 05:44 14.57094 -90.53142 4879 ft 11 kts 14°
2026-04-28 05:45 14.57205 -90.53108 4879 ft 37 kts 18°
2026-04-28 05:45 14.57683 -90.52954 4875 ft 105 kts 17°
2026-04-28 05:45 14.58579 -90.52667 4892 ft 159 kts 17°
2026-04-28 05:45 14.59718 -90.52307 5220 ft 176 kts 17°
2026-04-28 05:46 14.60887 -90.51959 5831 ft 177 kts 15°
2026-04-28 05:46 14.62082 -90.51657 6479 ft 178 kts 13°
2026-04-28 05:46 14.63313 -90.51399 6966 ft 185 kts 12°
2026-04-28 05:46 14.64586 -90.50954 7258 ft 200 kts 38°
2026-04-28 05:47 14.65365 -90.49731 7581 ft 214 kts 75°
2026-04-28 05:47 14.65290 -90.48165 7879 ft 235 kts 111°
2026-04-28 05:47 14.64306 -90.46723 8181 ft 258 kts 128°
2026-04-28 05:47 14.63096 -90.45274 8594 ft 275 kts 127°
2026-04-28 05:48 14.61832 -90.43721 9122 ft 288 kts 127°
2026-04-28 05:48 14.60542 -90.42128 9870 ft 292 kts 126°
2026-04-28 05:48 14.59228 -90.40494 10566 ft 298 kts 126°
2026-04-28 05:48 14.57864 -90.38791 11027 ft 313 kts 126°
2026-04-28 05:49 14.56455 -90.37033 11696 ft 319 kts 126°
2026-04-28 05:49 14.55023 -90.35251 12458 ft 322 kts 125°
2026-04-28 05:49 14.53604 -90.33484 13188 ft 325 kts 126°
2026-04-28 05:49 14.52150 -90.31668 13896 ft 329 kts 126°
2026-04-28 05:50 14.50689 -90.29843 14582 ft 333 kts 126°
2026-04-28 05:50 14.49199 -90.27986 15249 ft 336 kts 126°
2026-04-28 05:50 14.47721 -90.26139 15878 ft 340 kts 126°
2026-04-28 05:50 14.46204 -90.24249 16482 ft 344 kts 126°
2026-04-28 05:51 14.44668 -90.22333 17068 ft 347 kts 126°
2026-04-28 05:51 14.43125 -90.20409 17653 ft 351 kts 126°
2026-04-28 05:51 14.41548 -90.18446 18254 ft 354 kts 126°
2026-04-28 05:51 14.39986 -90.16503 18834 ft 358 kts 126°
2026-04-28 05:52 14.38384 -90.14508 19398 ft 362 kts 125°
2026-04-28 05:52 14.36770 -90.12501 19966 ft 366 kts 125°
2026-04-28 05:52 14.35132 -90.10462 20549 ft 369 kts 125°
2026-04-28 05:52 14.33500 -90.08431 21107 ft 373 kts 125°
2026-04-28 05:53 14.31839 -90.06366 21649 ft 377 kts 125°
2026-04-28 05:53 14.30163 -90.04282 22202 ft 380 kts 124°
2026-04-28 05:53 14.28453 -90.02155 22742 ft 384 kts 124°
2026-04-28 05:53 14.26745 -90.00027 23276 ft 388 kts 124°
2026-04-28 05:54 14.25014 -89.97871 23802 ft 392 kts 125°
2026-04-28 05:54 14.23277 -89.95711 24324 ft 396 kts 125°
2026-04-28 05:54 14.21503 -89.93508 24835 ft 400 kts 124°
2026-04-28 05:54 14.19741 -89.91318 25355 ft 403 kts 125°
2026-04-28 05:55 14.17942 -89.89085 25874 ft 406 kts 125°
2026-04-28 05:55 14.16122 -89.86826 26357 ft 410 kts 125°
2026-04-28 05:55 14.14308 -89.84573 26821 ft 414 kts 125°
2026-04-28 05:55 14.12466 -89.82288 27294 ft 417 kts 125°
2026-04-28 05:56 14.10600 -89.79974 27762 ft 421 kts 125°
2026-04-28 05:56 14.08721 -89.77646 28224 ft 424 kts 125°
2026-04-28 05:56 14.06826 -89.75298 28664 ft 428 kts 125°
2026-04-28 05:56 14.04910 -89.72923 29111 ft 431 kts 126°
2026-04-28 05:57 14.03006 -89.70562 29520 ft 434 kts 126°
2026-04-28 05:57 14.01071 -89.68162 29954 ft 437 kts 126°
2026-04-28 05:57 13.99108 -89.65730 30387 ft 439 kts 126°
2026-04-28 05:57 13.97146 -89.63300 30803 ft 441 kts 127°
2026-04-28 05:58 13.95187 -89.60874 31207 ft 443 kts 127°
2026-04-28 05:58 13.93209 -89.58427 31584 ft 446 kts 128°
2026-04-28 05:58 13.91220 -89.55969 31942 ft 448 kts 128°
2026-04-28 05:58 13.89208 -89.53483 32327 ft 449 kts 128°
2026-04-28 05:59 13.87230 -89.51038 32786 ft 448 kts 128°
2026-04-28 05:59 13.85213 -89.48543 33305 ft 446 kts 129°
2026-04-28 05:59 13.83244 -89.46114 33799 ft 444 kts 129°
2026-04-28 05:59 13.81263 -89.43669 34259 ft 443 kts 129°
2026-04-28 06:00 13.79294 -89.41243 34674 ft 442 kts 129°
2026-04-28 06:00 13.77349 -89.38841 35081 ft 441 kts 129°
2026-04-28 06:00 13.75390 -89.36425 35509 ft 439 kts 129°
2026-04-28 06:00 13.73417 -89.33991 35840 ft 440 kts 130°
2026-04-28 06:01 13.71461 -89.31580 36090 ft 441 kts 130°
2026-04-28 06:01 13.69495 -89.29157 36351 ft 443 kts 130°
2026-04-28 06:01 13.67522 -89.26726 36621 ft 443 kts 130°
2026-04-28 06:01 13.65539 -89.24283 36859 ft 444 kts 130°
2026-04-28 06:02 13.63575 -89.21864 37013 ft 447 kts 130°
2026-04-28 06:02 13.61561 -89.19384 37004 ft 453 kts 130°
2026-04-28 06:02 13.57477 -89.14360 36983 ft 464 kts 130°
2026-04-28 06:03 13.53279 -89.09198 36951 ft 473 kts 130°
2026-04-28 06:03 13.49048 -89.03997 36928 ft 476 kts 130°
2026-04-28 06:04 13.44778 -88.98750 36920 ft 476 kts 130°
2026-04-28 06:04 13.40526 -88.93530 36918 ft 476 kts 130°
2026-04-28 06:05 13.36257 -88.88292 36915 ft 476 kts 130°
2026-04-28 06:05 13.31982 -88.83048 36914 ft 476 kts 130°
2026-04-28 06:06 13.27704 -88.77804 36901 ft 476 kts 130°
2026-04-28 06:06 13.23446 -88.72587 36900 ft 476 kts 130°
2026-04-28 06:07 13.19196 -88.67384 36896 ft 476 kts 130°
2026-04-28 06:07 13.14941 -88.62176 36891 ft 476 kts 130°
2026-04-28 06:08 13.10670 -88.56955 36892 ft 476 kts 130°
2026-04-28 06:08 13.06416 -88.51755 36891 ft 476 kts 130°
2026-04-28 06:09 13.02168 -88.46567 36884 ft 476 kts 130°
2026-04-28 06:09 12.97889 -88.41344 36878 ft 475 kts 130°
2026-04-28 06:10 12.93628 -88.36144 36878 ft 476 kts 130°
2026-04-28 06:10 12.89372 -88.30956 36877 ft 475 kts 131°
2026-04-28 06:11 12.85118 -88.25772 36877 ft 475 kts 131°
2026-04-28 06:11 12.80832 -88.20553 36877 ft 475 kts 131°
2026-04-28 06:12 12.76575 -88.15370 36877 ft 476 kts 131°
2026-04-28 06:12 12.72315 -88.10188 36877 ft 475 kts 131°
2026-04-28 06:13 12.68061 -88.05017 36877 ft 476 kts 131°
2026-04-28 06:13 12.63785 -87.99820 36876 ft 476 kts 131°
2026-04-28 06:14 12.59516 -87.94637 36877 ft 476 kts 131°
2026-04-28 06:14 12.55246 -87.89455 36877 ft 476 kts 131°
2026-04-28 06:15 12.50991 -87.84294 36878 ft 476 kts 131°
2026-04-28 06:15 12.46736 -87.79134 36877 ft 476 kts 131°
2026-04-28 06:16 12.42447 -87.73937 36877 ft 476 kts 131°
2026-04-28 06:16 12.38186 -87.68779 36876 ft 476 kts 131°
2026-04-28 06:17 12.33916 -87.63612 36876 ft 476 kts 131°
2026-04-28 06:18 12.27503 -87.55854 36878 ft 476 kts 132°
2026-04-28 06:18 12.23226 -87.50686 36878 ft 476 kts 132°
2026-04-28 06:19 12.18946 -87.45515 36878 ft 476 kts 132°
2026-04-28 06:19 12.14660 -87.40340 36879 ft 476 kts 132°
2026-04-28 06:20 12.10378 -87.35175 36878 ft 476 kts 132°
2026-04-28 06:20 12.06099 -87.30013 36879 ft 476 kts 132°
2026-04-28 06:21 12.01819 -87.24854 36878 ft 476 kts 132°
2026-04-28 06:21 11.97545 -87.19706 36878 ft 476 kts 132°
2026-04-28 06:22 11.93239 -87.14521 36875 ft 476 kts 133°
2026-04-28 06:22 11.88973 -87.09388 36875 ft 476 kts 132°
2026-04-28 06:23 11.84661 -87.04202 36873 ft 477 kts 133°
2026-04-28 06:23 11.80369 -86.99043 36878 ft 477 kts 133°
2026-04-28 06:24 11.76085 -86.93894 36875 ft 477 kts 133°
2026-04-28 06:24 11.71798 -86.88746 36872 ft 477 kts 133°
2026-04-28 06:25 11.67494 -86.83581 36876 ft 477 kts 133°
2026-04-28 06:25 11.63202 -86.78432 36874 ft 478 kts 133°
2026-04-28 06:26 11.58890 -86.73261 36876 ft 478 kts 133°
2026-04-28 06:26 11.54600 -86.68122 36877 ft 478 kts 133°
2026-04-28 06:27 11.50280 -86.62947 36875 ft 478 kts 133°
2026-04-28 06:27 11.45972 -86.57788 36880 ft 478 kts 133°
2026-04-28 06:28 11.41644 -86.52612 36880 ft 478 kts 133°
2026-04-28 06:28 11.37350 -86.47475 36877 ft 478 kts 133°
2026-04-28 06:29 11.33030 -86.42312 36879 ft 479 kts 133°
2026-04-28 06:29 11.28692 -86.37131 36878 ft 478 kts 133°
2026-04-28 06:30 11.24351 -86.31945 36876 ft 479 kts 133°
2026-04-28 06:30 11.20053 -86.26816 36875 ft 479 kts 133°
2026-04-28 06:31 11.15731 -86.21660 36877 ft 479 kts 133°
2026-04-28 06:31 11.11394 -86.16490 36877 ft 479 kts 133°
2026-04-28 06:32 11.07075 -86.11343 36877 ft 479 kts 134°
2026-04-28 06:32 11.02748 -86.06187 36876 ft 479 kts 134°
2026-04-28 06:33 10.98411 -86.01024 36875 ft 479 kts 134°
2026-04-28 06:33 10.94067 -85.95853 36875 ft 480 kts 134°
2026-04-28 06:34 10.89736 -85.90699 36855 ft 475 kts 134°
2026-04-28 06:34 10.87600 -85.88158 36368 ft 469 kts 134°
2026-04-28 06:34 10.85494 -85.85652 35760 ft 464 kts 134°
2026-04-28 06:34 10.83400 -85.83160 35135 ft 460 kts 134°
2026-04-28 06:35 10.81350 -85.80724 34509 ft 456 kts 134°
2026-04-28 06:35 10.79286 -85.78272 33841 ft 454 kts 134°
2026-04-28 06:35 10.77247 -85.75849 33185 ft 451 kts 134°
2026-04-28 06:35 10.75210 -85.73429 32526 ft 450 kts 134°
2026-04-28 06:36 10.73160 -85.70998 31855 ft 451 kts 134°
2026-04-28 06:36 10.71127 -85.68587 31308 ft 448 kts 134°
2026-04-28 06:36 10.69138 -85.66224 30850 ft 443 kts 133°
2026-04-28 06:36 10.67138 -85.63846 30392 ft 439 kts 133°
2026-04-28 06:37 10.65155 -85.61490 29926 ft 435 kts 133°
2026-04-28 06:37 10.63190 -85.59157 29474 ft 431 kts 133°
2026-04-28 06:37 10.61290 -85.56865 29025 ft 428 kts 130°
2026-04-28 06:37 10.59535 -85.54410 28583 ft 425 kts 125°
2026-04-28 06:38 10.58038 -85.51871 28148 ft 423 kts 120°
2026-04-28 06:38 10.56712 -85.49223 27696 ft 420 kts 118°
2026-04-28 06:38 10.55432 -85.46564 27245 ft 417 kts 117°
2026-04-28 06:38 10.54160 -85.43906 26785 ft 414 kts 117°
2026-04-28 06:39 10.52908 -85.41299 26333 ft 411 kts 118°
2026-04-28 06:39 10.51478 -85.38798 25817 ft 408 kts 125°
2026-04-28 06:39 10.49851 -85.36430 25229 ft 408 kts 127°
2026-04-28 06:39 10.48210 -85.34106 24612 ft 409 kts 127°
2026-04-28 06:40 10.46549 -85.31728 23974 ft 410 kts 126°
2026-04-28 06:40 10.44921 -85.29366 23345 ft 411 kts 126°
2026-04-28 06:40 10.43304 -85.26999 22794 ft 409 kts 125°
2026-04-28 06:40 10.41681 -85.24608 22294 ft 406 kts 125°
2026-04-28 06:41 10.40091 -85.22257 21828 ft 402 kts 125°
2026-04-28 06:41 10.38509 -85.19912 21370 ft 398 kts 124°
2026-04-28 06:41 10.36970 -85.17630 20928 ft 394 kts 124°
2026-04-28 06:41 10.35416 -85.15325 20480 ft 390 kts 124°
2026-04-28 06:42 10.33902 -85.13079 20070 ft 385 kts 124°
2026-04-28 06:42 10.32398 -85.10848 19663 ft 381 kts 123°
2026-04-28 06:42 10.30892 -85.08613 19246 ft 377 kts 123°
2026-04-28 06:42 10.29421 -85.06430 18828 ft 373 kts 123°
2026-04-28 06:43 10.27977 -85.04288 18421 ft 369 kts 123°
2026-04-28 06:43 10.26526 -85.02134 18009 ft 365 kts 123°
2026-04-28 06:43 10.25089 -85.00005 17595 ft 362 kts 123°
2026-04-28 06:43 10.23671 -84.97902 17179 ft 359 kts 123°
2026-04-28 06:44 10.22272 -84.95825 16767 ft 356 kts 123°
2026-04-28 06:44 10.20877 -84.93756 16345 ft 354 kts 122°
2026-04-28 06:44 10.19493 -84.91702 15909 ft 352 kts 123°
2026-04-28 06:44 10.19331 -84.91463 15856 ft 351 kts 123°
2026-04-28 06:45 10.18743 -84.90590 15664 ft 350 kts 123°
2026-04-28 06:45 10.17372 -84.88557 15233 ft 348 kts 123°
2026-04-28 06:45 10.16011 -84.86541 14806 ft 346 kts 123°
2026-04-28 06:45 10.14644 -84.84517 14358 ft 344 kts 123°
2026-04-28 06:46 10.13303 -84.82529 13924 ft 342 kts 123°
2026-04-28 06:46 10.11959 -84.80541 13482 ft 340 kts 123°
2026-04-28 06:46 10.11001 -84.79123 13179 ft 338 kts 123°